AT261 Weather Reports


time (UTC)temp
C
wind
direction
speed
KPH
gust
KPH
rain 1hr
cm
rain 24hr
cm
rain mn
cm
humidity
%
barometer
mb
20260505064447 23 0 0.0 0.0 0.00 0.00 0.00 55 1012.9
20260505063945 23 0 0.0 0.0 0.00 0.00 0.00 56 1012.9
20260505063446 23 0 0.0 0.0 0.00 0.00 0.00 56 1013.0
20260505062945 23 0 0.0 0.0 0.00 0.00 0.00 55 1013.1
20260505062447 23 0 0.0 0.0 0.00 0.00 0.00 55 1013.3
20260505061931 23 0 0.0 0.0 0.00 0.00 0.00 55 1013.5
20260505061432 23 0 0.0 0.0 0.00 0.00 0.00 55 1013.5
20260505060931 23 0 0.0 0.0 0.00 0.00 0.00 55 1013.6
20260505060435 23 0 0.0 0.0 0.00 0.00 0.00 55 1013.7
20260505055933 23 0 0.0 0.0 0.00 0.00 0.00 55 1013.7
20260505055436 23 0 0.0 0.0 0.00 0.00 0.00 55 1013.8
20260505054935 23 0 0.0 0.0 0.00 0.00 0.00 55 1013.7
20260505054435 23 0 0.0 0.0 0.00 0.00 0.00 55 1013.7
20260505053934 23 0 0.0 0.0 0.00 0.00 0.00 55 1013.7
20260505052700 23 0 0.0 1.6 0.00 0.00 0.00 55 1013.6
20260505052411 23 190 0.0 1.6 0.00 0.00 0.00 55 1013.4
20260505051654 23 0 0.0 0.0 0.00 0.00 0.00 55 1013.5
20260505050933 23 0 0.0 0.0 0.00 0.00 0.00 55 1013.5
20260505050435 23 0 0.0 0.0 0.00 0.00 0.00 55 1013.5
20260505050200 23 0 0.0 0.0 0.00 0.00 0.00 55 1013.4
20260505041422 22 0 0.0 0.0 0.00 0.00 0.00 53 1013.8
20260505040903 23 0 0.0 3.2 0.00 0.00 0.00 53 1013.9
20260505040402 23 0 0.0 3.2 0.00 0.00 0.00 54 1013.9
20260505035903 23 0 0.0 1.6 0.00 0.00 0.00 54 1013.9
20260505035405 23 0 0.0 1.6 0.00 0.00 0.00 54 1013.9
20260505034905 23 0 0.0 1.6 0.00 0.00 0.00 54 1014.0
20260505034142 22 0 0.0 1.6 0.00 0.00 0.00 54 1014.0
20260505033643 22 0 0.0 1.6 0.00 0.00 0.00 54 1014.0
20260505033139 22 254 0.0 1.6 0.00 0.00 0.00 54 1013.9
20260505032905 22 0 0.0 1.6 0.00 0.00 0.00 54 1013.9
20260505032400 22 0 0.0 1.6 0.00 0.00 0.00 53 1013.9
20260505031639 22 236 0.0 1.6 0.00 0.00 0.00 53 1014.0
20260505031139 23 0 0.0 3.2 0.00 0.00 0.00 54 1013.8
20260505030137 22 45 1.6 3.2 0.00 0.00 0.00 54 1013.7
20260505025637 22 0 0.0 3.2 0.00 0.00 0.00 54 1013.6
20260505025137 22 0 0.0 3.2 0.00 0.00 0.00 54 1013.7
20260505024854 22 0 0.0 3.2 0.00 0.00 0.00 54 1013.6
20260505023354 22 62 0.0 1.6 0.00 0.00 0.00 53 1013.7
20260505022900 22 0 0.0 3.2 0.00 0.00 0.00 53 1013.8
20260505022400 22 0 0.0 3.2 0.00 0.00 0.00 52 1013.7
20260505021904 22 0 0.0 1.6 0.00 0.00 0.00 53 1013.7
20260505021135 22 258 0.0 3.2 0.00 0.00 0.00 53 1013.7
20260505020635 22 327 0.0 3.2 0.00 0.00 0.00 53 1013.6
20260505020135 22 46 0.0 3.2 0.00 0.00 0.00 52 1013.6
20260505015635 22 0 0.0 3.2 0.00 0.00 0.00 52 1013.5
20260505015135 23 71 0.0 3.2 0.00 0.00 0.00 53 1013.5
20260505014635 22 0 0.0 3.2 0.00 0.00 0.00 54 1013.5
20260505014135 23 0 0.0 3.2 0.00 0.00 0.00 54 1013.4
20260505013635 23 41 0.0 3.2 0.00 0.00 0.00 53 1013.3
20260505013135 23 0 0.0 3.2 0.00 0.00 0.00 54 1013.1
20260505012636 23 216 0.0 3.2 0.00 0.00 0.00 55 1013.1
20260505012135 23 0 0.0 3.2 0.00 0.00 0.00 54 1013.1
20260505011635 22 0 0.0 3.2 0.00 0.00 0.00 54 1013.2
20260505011135 23 0 0.0 3.2 0.00 0.00 0.00 53 1013.3
20260505010632 23 238 0.0 3.2 0.00 0.00 0.00 54 1013.3
20260505010132 23 227 0.0 3.2 0.00 0.00 0.00 54 1013.2
20260505005853 22 0 0.0 3.2 0.00 0.00 0.00 54 1013.1
20260505005133 22 0 0.0 3.2 0.00 0.00 0.00 54 1013.2
20260505004630 22 0 0.0 1.6 0.00 0.00 0.00 53 1013.2
20260505004129 23 0 0.0 1.6 0.00 0.00 0.00 53 1013.4
20260505003630 23 0 0.0 3.2 0.00 0.00 0.00 53 1013.5
20260505003130 23 0 0.0 4.8 0.00 0.00 0.00 53 1013.6
20260505002848 23 0 0.0 4.8 0.00 0.00 0.00 54 1013.4
20260505002130 23 0 0.0 3.2 0.00 0.00 0.00 54 1013.4
20260505001630 23 0 0.0 6.4 0.00 0.00 0.00 53 1013.5
20260505001130 23 0 0.0 6.4 0.00 0.00 0.00 53 1013.6
20260505000627 23 257 0.0 3.2 0.00 0.00 0.00 53 1013.6
20260505000351 23 0 0.0 3.2 0.00 0.00 0.00 54 1013.7
20260504235624 23 200 0.0 3.2 0.00 0.00 0.00 54 1013.6
20260504235125 23 206 0.0 3.2 0.00 0.00 0.00 53 1013.5
20260504234625 23 214 0.0 4.8 0.00 0.00 0.00 53 1013.6
20260504234126 23 50 0.0 4.8 0.00 0.00 0.00 53 1013.6
20260504233846 23 0 0.0 1.6 0.00 0.00 0.00 53 1013.6
20260504233124 23 0 0.0 3.2 0.00 0.00 0.00 53 1013.7
20260504233110 23 0 1.6 4.8 0.00 0.00 0.00 53 1013.8
20260504232125 23 140 0.0 4.8 0.00 0.00 0.00 54 1013.8
20260504231625 23 197 0.0 4.8 0.00 0.00 0.00 54 1013.8
20260504231124 23 0 0.0 4.8 0.00 0.00 0.00 55 1013.8
20260504230626 24 203 1.6 4.8 0.00 0.00 0.00 55 1013.9
20260504230125 24 0 1.6 6.4 0.00 0.00 0.00 56 1013.9
20260504225622 24 143 1.6 6.4 0.00 0.00 0.00 55 1014.0
20260504225615 24 59 1.6 6.4 0.00 0.00 0.00 54 1013.9
20260504224624 24 303 1.6 4.8 0.00 0.00 0.00 54 1014.0
20260504224122 24 96 1.6 4.8 0.00 0.00 0.00 54 1014.1
20260504223622 24 0 0.0 3.2 0.00 0.00 0.00 55 1014.0
20260504223119 24 182 1.6 4.8 0.00 0.00 0.00 56 1014.2
20260504222620 24 236 1.6 4.8 0.00 0.00 0.00 56 1014.2
20260504222120 24 43 1.6 3.2 0.00 0.00 0.00 56 1014.1
20260504221620 24 109 0.0 4.8 0.00 0.00 0.00 56 1014.2
20260504221142 24 0 0.0 4.8 0.00 0.00 0.00 55 1014.1
20260504220621 24 56 1.6 4.8 0.00 0.00 0.00 55 1014.2
20260504220120 24 0 1.6 8.0 0.00 0.00 0.00 55 1014.5
20260504215620 25 0 1.6 8.0 0.00 0.00 0.00 55 1014.4
20260504215120 25 155 0.0 3.2 0.00 0.00 0.00 56 1014.4
20260504214620 25 232 1.6 8.0 0.00 0.00 0.00 57 1014.3
20260504214343 25 0 1.6 8.0 0.00 0.00 0.00 57 1014.4
20260504213621 25 0 1.6 4.8 0.00 0.00 0.00 57 1014.4
20260504213118 25 110 1.6 6.4 0.00 0.00 0.00 57 1014.4
20260504212619 25 8 1.6 6.4 0.00 0.00 0.00 57 1014.4
20260504211616 24 258 1.6 4.8 0.00 0.00 0.00 57 1014.7
20260504211115 24 150 1.6 4.8 0.00 0.00 0.00 57 1014.5
20260504210839 24 170 1.6 8.0 0.00 0.00 0.00 57 1014.7
20260504210115 24 0 1.6 8.0 0.00 0.00 0.00 57 1014.8
20260504205840 24 0 3.2 6.4 0.00 0.00 0.00 57 1014.7
20260504205333 24 178 3.2 8.0 0.00 0.00 0.00 57 1014.7
20260504204113 24 100 1.6 8.0 0.00 0.00 0.00 57 1014.8
20260504203612 24 276 3.2 9.7 0.00 0.00 0.00 57 1014.9
20260504203109 24 340 3.2 9.7 0.00 0.00 0.00 57 1015.0
20260504202610 24 53 3.2 9.7 0.00 0.00 0.00 57 1015.1
20260504202327 24 96 1.6 8.0 0.00 0.00 0.00 57 1015.2
20260504201609 24 267 1.6 8.0 0.00 0.00 0.00 57 1015.2
20260504201334 24 137 1.6 8.0 0.00 0.00 0.00 57 1015.2
20260504200606 24 348 1.6 6.4 0.00 0.00 0.00 57 1015.3
20260504200108 24 0 1.6 4.8 0.00 0.00 0.00 57 1015.5
20260504195607 24 175 1.6 4.8 0.00 0.00 0.00 57 1015.5
20260504195107 24 177 1.6 3.2 0.00 0.00 0.00 57 1015.6
20260504194607 23 228 1.6 4.8 0.00 0.00 0.00 57 1015.7
20260504194107 24 201 1.6 4.8 0.00 0.00 0.00 57 1015.9
20260504193832 23 300 3.2 8.0 0.00 0.00 0.00 57 1015.9
20260504193336 23 286 3.2 8.0 0.00 0.00 0.00 56 1016.0
20260504192605 23 51 1.6 6.4 0.00 0.00 0.00 57 1016.0
20260504192104 23 144 1.6 4.8 0.00 0.00 0.00 56 1016.0
20260504191829 23 206 1.6 6.4 0.00 0.00 0.00 56 1016.1
20260504191102 23 52 1.6 6.4 0.00 0.00 0.00 56 1016.1
20260504190602 23 140 1.6 6.4 0.00 0.00 0.00 56 1016.2
20260504185602 23 30 1.6 6.4 0.00 0.00 0.00 56 1016.1
20260504185102 23 216 3.2 9.7 0.00 0.00 0.00 56 1016.2
20260504184823 23 0 3.2 9.7 0.00 0.00 0.00 56 1016.4
20260504184102 23 348 3.2 9.7 0.00 0.00 0.00 56 1016.4
20260504183602 23 25 1.6 6.4 0.00 0.00 0.00 56 1016.4
20260504183103 23 78 1.6 6.4 0.00 0.00 0.00 56 1016.5
20260504182603 23 298 1.6 6.4 0.00 0.00 0.00 56 1016.6
20260504182103 23 172 1.6 4.8 0.00 0.00 0.00 56 1016.7
20260504181816 23 268 1.6 4.8 0.00 0.00 0.00 56 1016.9
20260504181658 23 197 1.6 4.8 0.00 0.00 0.00 56 1016.9
20260504180559 23 182 1.6 8.0 0.00 0.00 0.00 56 1016.9
20260504180319 23 191 3.2 9.7 0.00 0.00 0.00 56 1017.1
20260504175554 23 169 1.6 9.7 0.00 0.00 0.00 56 1017.1
20260504175054 23 195 1.6 4.8 0.00 0.00 0.00 56 1017.1
20260504174551 23 0 1.6 6.4 0.00 0.00 0.00 56 1017.0
20260504174050 23 208 1.6 6.4 0.00 0.00 0.00 56 1017.0
20260504173551 23 214 1.6 4.8 0.00 0.00 0.00 56 1017.0
20260504173050 23 215 1.6 6.4 0.00 0.00 0.00 56 1017.1
20260504172551 23 182 1.6 6.4 0.00 0.00 0.00 56 1017.2
20260504172051 23 85 1.6 6.4 0.00 0.00 0.00 56 1017.2
20260504171551 23 0 1.6 6.4 0.00 0.00 0.00 55 1017.1
20260504171051 23 278 1.6 8.0 0.00 0.00 0.00 55 1017.0
20260504170552 23 39 3.2 11.3 0.00 0.00 0.00 55 1017.0
20260504151044 23 43 1.6 6.4 0.00 0.00 0.00 55 1017.9
20260504150544 23 7 1.6 4.8 0.00 0.00 0.00 55 1017.8
20260504141301 22 197 0.0 3.2 0.00 0.00 0.00 55 1017.9
20260504140535 23 282 0.0 3.2 0.00 0.00 0.00 55 1018.0
20260504130533 23 0 0.0 1.6 0.00 0.00 0.00 54 1017.9
20260504110448 23 191 0.0 1.6 0.00 0.00 0.00 54 1017.1
20260504100155 23 0 0.0 1.6 0.00 0.00 0.00 54 1017.2
20260504081838 23 151 0.0 1.6 0.00 0.00 0.00 54 1017.4
20260504081556 23 0 0.0 1.6 0.00 0.00 0.00 54 1017.5
20260504081104 23 0 0.0 0.0 0.00 0.00 0.00 54 1017.5
20260504080338 23 0 0.0 1.6 0.00 0.00 0.00 53 1017.4
20260504070300 23 208 0.0 1.6 0.00 0.00 0.00 54 1017.9